Weather in Ustinkino

Russia / Republic of Khakassia     54°54′22″N   89°33′36″E
temp.,
°C
wind,
m/s
gust,
m/s
humid.,
%
clouds,
%
prec.,
mm/h
press.,
hPa
HPBL,
m
25 october, mon
mon2501:00+4wsw6138166 0.0 10221043
04:00+5sw4118193 0.0 1022778
07:00+5ssw4108192 0.0 1021738
10:00+4ssw31082100 0.0 1020551
13:00+5ssw51280100 0.0 1018978
16:00+7ssw51469100 0.0 10161190
19:00+7wsw61560100 0.0 1016901
22:00+6wsw71558100 0.0 1017822
26 october, tue
tue2601:00+5wsw51264100 0.0 1018587
04:00+3ssw2275100 0.0 101924
07:00+1ssw2380100 0.0 101947
10:00+3s2472100 0.0 1018146
13:00+6s2459100 0.0 1014220
16:00+6sse2362100 0.0 1010102
19:00+4ssw3469100 0.0 100952
22:00+4ssw3669100 0.0 1008106
27 october, wed
wed2701:00+6sw4115280 0.0 1008334
04:00+5wsw71566100 0.0 10111157
07:00+1w7156597 0.1 10181316
10:000w51159100 0.0 10221103
13:00+1w573718 0.0 10231311
16:00+1wsw47426 0.0 10241259
19:00−3wsw2363100 0.0 102566
22:00−3sw286286 0.0 1026320
28 october, thu
thu2801:00−3wsw3105840 0.0 1026648
04:00−4sw395979 0.0 1027404
07:00−5sw266270 0.0 1028187
10:00−3sw3852100 0.0 1029539
13:000wsw4640100 0.0 10281125
16:000wsw2447100 0.0 1028623
19:00−3s115871 0.0 102910
22:00−4ssw226962 0.0 102926
29 october, fri
fri2901:00−5ssw227695 0.0 102823
04:00−4s227197 0.0 102753
07:00−3s2359100 0.0 1025106
10:00−2s2448100 0.0 1024158
13:00+1sse3558100 0.0 1022183
16:00+5sw61363100 0.0 10191076
19:00+2sw51366100 0.0 1020642
22:00+2sw61362100 0.0 1021665